sat.trackr.live / text

‹ back to catalog

WGS F2 (USA 204)

NORAD 34713 · 2009-017A

PAYLOAD ACTIVE UNKNOWN

§ Identity

Operator
Country
US
Launch date
2009-04-04
Launch site
AFETR
Launch vehicle
Mass (kg)
RCS (m²)
5.01

Purposes: comms

External: N2YO · Heavens-Above · Gunter

§ Orbital elements

Epoch: 2026-05-25T04:01:00.691104Z

Period
1,436.10 min
Inclination
0.0180°
Eccentricity
0.0001290
Mean motion
1.00271466 rev/d
Perigee alt
35,781.2 km
Apogee alt
35,792.1 km
Semi-major
42,164.8 km
B*
0.0000e+0
RAAN
330.7728°
Arg perigee
256.8339°
Mean anomaly
132.9166°
Rev number
4,538

§ Raw data

WGS F2 (USA 204)1 34713U 09017A   26145.16736911  .00000066  00000+0  00000+0 0  99972 34713   0.0180 330.7728 0001290 256.8339 132.9166  1.00271466 45382

JSON: /api/v1/satellites/34713 · /tle

For live sub-satellite position, see the globe view (requires WebGL).

§ Visibility from observer

Set your observer location to see the next 7 days of passes ≥ 10°. The values pass through the URL so the page stays shareable.

No JS? Fill the form by hand. The geolocation button needs JavaScript.